Вернуться в каталог

SIRION PATHFINDER-2

АктивенНаукаSSO
NORAD 43759·PAYLOAD·🇺🇸 United States

Запущен Dec 3, 2018 с Vandenberg Space Force Base

Loading…

Ближайшие Пролёты (ближайшие 24 часа)

TLE

СвежийSource: Space-Track

Эпоха: Sep 14, 2026, 02:09 UTC

1 43759U 18099B   26257.08989207  .00003669  00000-0  19880-3 0  9993
2 43759  97.4166 304.0329 0008454   3.0415 357.0867 15.15189398426084

Отслеживайте SIRION PATHFINDER-2 в реальном времени с AllMySat

Download on the App Store